Year,Month,Day,Hour,Minute,Value (Times are PST for temperature in C)
2018,03,20,00,00,3.60
2018,03,20,00,01,3.60
2018,03,20,00,02,3.60
2018,03,20,00,03,3.50
2018,03,20,00,04,3.50
2018,03,20,00,05,3.50
2018,03,20,00,06,3.50
2018,03,20,00,07,3.40
2018,03,20,00,08,3.40
2018,03,20,00,09,3.40
2018,03,20,00,10,3.40
2018,03,20,00,11,3.40
2018,03,20,00,12,3.40
2018,03,20,00,13,3.30
2018,03,20,00,14,3.30
2018,03,20,00,15,3.30
2018,03,20,00,16,3.30
2018,03,20,00,17,3.30
2018,03,20,00,18,3.30
2018,03,20,00,19,3.30
2018,03,20,00,20,3.20
2018,03,20,00,21,3.20
2018,03,20,00,22,3.20
2018,03,20,00,23,3.20
2018,03,20,00,24,3.20
2018,03,20,00,25,3.20
2018,03,20,00,26,3.10
2018,03,20,00,27,3.10
2018,03,20,00,28,3.10
2018,03,20,00,29,3.10
2018,03,20,00,30,3.10
2018,03,20,00,31,3.10
2018,03,20,00,32,3.10
2018,03,20,00,33,3.10
2018,03,20,00,34,3.00
2018,03,20,00,35,3.00
2018,03,20,00,36,3.00
2018,03,20,00,37,3.00
2018,03,20,00,38,3.00
2018,03,20,00,39,2.90
2018,03,20,00,40,2.90
2018,03,20,00,41,2.90
2018,03,20,00,42,2.90
2018,03,20,00,43,2.90
2018,03,20,00,44,2.90
2018,03,20,00,45,2.90
2018,03,20,00,46,2.90
2018,03,20,00,47,2.90
2018,03,20,00,48,2.90
2018,03,20,00,49,2.90
2018,03,20,00,50,2.90
2018,03,20,00,51,2.80
2018,03,20,00,52,2.80
2018,03,20,00,53,2.80
2018,03,20,00,54,2.80
2018,03,20,00,55,2.70
2018,03,20,00,56,2.70
2018,03,20,00,57,2.70
2018,03,20,00,58,2.70
2018,03,20,00,59,2.70
2018,03,20,01,00,2.70
2018,03,20,01,01,2.70
2018,03,20,01,02,2.60
2018,03,20,01,03,2.60
2018,03,20,01,04,2.60
2018,03,20,01,05,2.60
2018,03,20,01,06,2.60
2018,03,20,01,07,2.60
2018,03,20,01,08,2.60
2018,03,20,01,09,2.60
2018,03,20,01,10,2.60
2018,03,20,01,11,2.50
2018,03,20,01,12,2.50
2018,03,20,01,13,2.50
2018,03,20,01,14,2.50
2018,03,20,01,15,2.50
2018,03,20,01,16,2.50
2018,03,20,01,17,2.50
2018,03,20,01,18,2.50
2018,03,20,01,19,2.50
2018,03,20,01,20,2.50
2018,03,20,01,21,2.50
2018,03,20,01,22,2.50
2018,03,20,01,23,2.50
2018,03,20,01,24,2.50
2018,03,20,01,25,2.50
2018,03,20,01,26,2.50
2018,03,20,01,27,2.50
2018,03,20,01,28,2.50
2018,03,20,01,29,2.40
2018,03,20,01,30,2.40
2018,03,20,01,31,2.40
2018,03,20,01,32,2.40
2018,03,20,01,33,2.40
2018,03,20,01,34,2.40
2018,03,20,01,35,2.30
2018,03,20,01,36,2.30
2018,03,20,01,37,2.30
2018,03,20,01,38,2.30
2018,03,20,01,39,2.30
2018,03,20,01,40,2.30
2018,03,20,01,41,2.20
2018,03,20,01,42,2.20
2018,03,20,01,43,2.20
2018,03,20,01,44,2.20
2018,03,20,01,45,2.20
2018,03,20,01,46,2.20
2018,03,20,01,47,2.10
2018,03,20,01,48,2.10
2018,03,20,01,49,2.10
2018,03,20,01,50,2.10
2018,03,20,01,51,2.10
2018,03,20,01,52,2.10
2018,03,20,01,53,2.10
2018,03,20,01,54,2.10
2018,03,20,01,55,2.10
2018,03,20,01,56,2.10
2018,03,20,01,57,2.10
2018,03,20,01,58,2.10
2018,03,20,01,59,2.10
2018,03,20,02,00,2.10
2018,03,20,02,01,2.10
2018,03,20,02,02,2.10
2018,03,20,02,03,2.10
2018,03,20,02,04,2.10
2018,03,20,02,05,2.10
2018,03,20,02,06,2.10
2018,03,20,02,07,2.00
2018,03,20,02,08,2.00
2018,03,20,02,09,2.00
2018,03,20,02,10,2.00
2018,03,20,02,11,2.00
2018,03,20,02,12,2.00
2018,03,20,02,13,1.90
2018,03,20,02,14,1.90
2018,03,20,02,15,1.90
2018,03,20,02,16,1.90
2018,03,20,02,17,1.90
2018,03,20,02,18,1.90
2018,03,20,02,19,1.80
2018,03,20,02,20,1.80
2018,03,20,02,21,1.80
2018,03,20,02,22,1.80
2018,03,20,02,23,1.80
2018,03,20,02,24,1.80
2018,03,20,02,25,1.70
2018,03,20,02,26,1.70
2018,03,20,02,27,1.70
2018,03,20,02,28,1.70
2018,03,20,02,29,1.70
2018,03,20,02,30,1.70
2018,03,20,02,31,1.70
2018,03,20,02,32,1.70
2018,03,20,02,33,1.70
2018,03,20,02,34,1.70
2018,03,20,02,35,1.70
2018,03,20,02,36,1.60
2018,03,20,02,37,1.60
2018,03,20,02,38,1.60
2018,03,20,02,39,1.60
2018,03,20,02,40,1.60
2018,03,20,02,41,1.60
2018,03,20,02,42,1.60
2018,03,20,02,43,1.60
2018,03,20,02,44,1.50
2018,03,20,02,45,1.50
2018,03,20,02,46,1.50
2018,03,20,02,47,1.50
2018,03,20,02,48,1.50
2018,03,20,02,49,1.50
2018,03,20,02,50,1.40
2018,03,20,02,51,1.40
2018,03,20,02,52,1.40
2018,03,20,02,53,1.40
2018,03,20,02,54,1.40
2018,03,20,02,55,1.40
2018,03,20,02,56,1.40
2018,03,20,02,57,1.40
2018,03,20,02,58,1.30
2018,03,20,02,59,1.30
2018,03,20,03,00,1.30
2018,03,20,03,01,1.30
2018,03,20,03,02,1.30
2018,03,20,03,03,1.30
2018,03,20,03,04,1.30
2018,03,20,03,05,1.30
2018,03,20,03,06,1.30
2018,03,20,03,07,1.30
2018,03,20,03,08,1.30
2018,03,20,03,09,1.30
2018,03,20,03,10,1.30
2018,03,20,03,11,1.30
2018,03,20,03,12,1.30
2018,03,20,03,13,1.30
2018,03,20,03,14,1.30
2018,03,20,03,15,1.30
2018,03,20,03,16,1.30
2018,03,20,03,17,1.30
2018,03,20,03,18,1.30
2018,03,20,03,19,1.30
2018,03,20,03,20,1.30
2018,03,20,03,21,1.30
2018,03,20,03,22,1.30
2018,03,20,03,23,1.30
2018,03,20,03,24,1.30
2018,03,20,03,25,1.30
2018,03,20,03,26,1.30
2018,03,20,03,27,1.30
2018,03,20,03,28,1.30
2018,03,20,03,29,1.30
2018,03,20,03,30,1.30
2018,03,20,03,31,1.30
2018,03,20,03,32,1.30
2018,03,20,03,33,1.30
2018,03,20,03,34,1.20
2018,03,20,03,35,1.20
2018,03,20,03,36,1.20
2018,03,20,03,37,1.20
2018,03,20,03,38,1.20
2018,03,20,03,39,1.20
2018,03,20,03,40,1.10
2018,03,20,03,41,1.10
2018,03,20,03,42,1.10
2018,03,20,03,43,1.10
2018,03,20,03,44,1.10
2018,03,20,03,45,1.10
2018,03,20,03,46,1.10
2018,03,20,03,47,1.10
2018,03,20,03,48,1.10
2018,03,20,03,49,1.10
2018,03,20,03,50,1.10
2018,03,20,03,51,1.00
2018,03,20,03,52,1.00
2018,03,20,03,53,1.00
2018,03,20,03,54,1.00
2018,03,20,03,55,1.00
2018,03,20,03,56,0.90
2018,03,20,03,57,0.90
2018,03,20,03,58,0.90
2018,03,20,03,59,0.90
2018,03,20,04,00,0.90
2018,03,20,04,01,0.90
2018,03,20,04,02,0.90
2018,03,20,04,03,0.90
2018,03,20,04,04,0.90
2018,03,20,04,05,0.90
2018,03,20,04,06,0.90
2018,03,20,04,07,0.80
2018,03,20,04,08,0.80
2018,03,20,04,09,0.80
2018,03,20,04,10,0.80
2018,03,20,04,11,0.80
2018,03,20,04,12,0.80
2018,03,20,04,13,0.80
2018,03,20,04,14,0.80
2018,03,20,04,15,0.80
2018,03,20,04,16,0.80
2018,03,20,04,17,0.80
2018,03,20,04,18,0.80
2018,03,20,04,19,0.80
2018,03,20,04,20,0.80
2018,03,20,04,21,0.80
2018,03,20,04,22,0.80
2018,03,20,04,23,0.80
2018,03,20,04,24,0.80
2018,03,20,04,25,0.80
2018,03,20,04,26,0.80
2018,03,20,04,27,0.80
2018,03,20,04,28,0.80
2018,03,20,04,29,0.80
2018,03,20,04,30,0.80
2018,03,20,04,31,0.80
2018,03,20,04,32,0.80
2018,03,20,04,33,0.90
2018,03,20,04,34,0.90
2018,03,20,04,35,0.90
2018,03,20,04,36,0.90
2018,03,20,04,37,0.90
2018,03,20,04,38,0.90
2018,03,20,04,39,0.90
2018,03,20,04,40,0.90
2018,03,20,04,41,0.90
2018,03,20,04,42,0.90
2018,03,20,04,43,0.90
2018,03,20,04,44,0.90
2018,03,20,04,45,0.90
2018,03,20,04,46,0.90
2018,03,20,04,47,0.90
2018,03,20,04,48,0.90
2018,03,20,04,49,0.90
2018,03,20,04,50,0.90
2018,03,20,04,51,0.90
2018,03,20,04,52,0.90
2018,03,20,04,53,0.90
2018,03,20,04,54,0.90
2018,03,20,04,55,0.90
2018,03,20,04,56,0.80
2018,03,20,04,57,0.80
2018,03,20,04,58,0.80
2018,03,20,04,59,0.80
2018,03,20,05,00,0.80
2018,03,20,05,01,0.80
2018,03,20,05,02,0.80
2018,03,20,05,03,0.80
2018,03,20,05,04,0.80
2018,03,20,05,05,0.80
2018,03,20,05,06,0.80
2018,03,20,05,07,0.70
2018,03,20,05,08,0.70
2018,03,20,05,09,0.70
2018,03,20,05,10,0.70
2018,03,20,05,11,0.70
2018,03,20,05,12,0.70
2018,03,20,05,13,0.70
2018,03,20,05,14,0.70
2018,03,20,05,15,0.70
2018,03,20,05,16,0.70
2018,03,20,05,17,0.70
2018,03,20,05,18,0.70
2018,03,20,05,19,0.70
2018,03,20,05,20,0.70
2018,03,20,05,21,0.70
2018,03,20,05,22,0.70
2018,03,20,05,23,0.70
2018,03,20,05,24,0.70
2018,03,20,05,25,0.70
2018,03,20,05,26,0.70
2018,03,20,05,27,0.70
2018,03,20,05,28,0.70
2018,03,20,05,29,0.70
2018,03,20,05,30,0.60
2018,03,20,05,31,0.70
2018,03,20,05,32,0.60
2018,03,20,05,33,0.60
2018,03,20,05,34,0.60
2018,03,20,05,35,0.60
2018,03,20,05,36,0.60
2018,03,20,05,37,0.60
2018,03,20,05,38,0.60
2018,03,20,05,39,0.60
2018,03,20,05,40,0.60
2018,03,20,05,41,0.60
2018,03,20,05,42,0.60
2018,03,20,05,43,0.50
2018,03,20,05,44,0.50
2018,03,20,05,45,0.50
2018,03,20,05,46,0.50
2018,03,20,05,47,0.50
2018,03,20,05,48,0.50
2018,03,20,05,49,0.50
2018,03,20,05,50,0.50
2018,03,20,05,51,0.50
2018,03,20,05,52,0.50
2018,03,20,05,53,0.50
2018,03,20,05,54,0.40
2018,03,20,05,55,0.40
2018,03,20,05,56,0.40
2018,03,20,05,57,0.40
2018,03,20,05,58,0.40
2018,03,20,05,59,0.40
2018,03,20,06,00,0.40
2018,03,20,06,01,0.40
2018,03,20,06,02,0.40
2018,03,20,06,03,0.40
2018,03,20,06,04,0.40
2018,03,20,06,05,0.40
2018,03,20,06,06,0.40
2018,03,20,06,07,0.40
2018,03,20,06,08,0.40
2018,03,20,06,09,0.40
2018,03,20,06,10,0.40
2018,03,20,06,11,0.40
2018,03,20,06,12,0.40
2018,03,20,06,13,0.40
2018,03,20,06,14,0.40
2018,03,20,06,15,0.40
2018,03,20,06,16,0.40
2018,03,20,06,17,0.50
2018,03,20,06,18,0.50
2018,03,20,06,19,0.50
2018,03,20,06,20,0.50
2018,03,20,06,21,0.50
2018,03,20,06,22,0.60
2018,03,20,06,23,0.60
2018,03,20,06,24,0.60
2018,03,20,06,25,0.60
2018,03,20,06,26,0.60
2018,03,20,06,27,0.60
2018,03,20,06,28,0.60
2018,03,20,06,29,0.60
2018,03,20,06,30,0.70
2018,03,20,06,31,0.70
2018,03,20,06,32,0.70
2018,03,20,06,33,0.70
2018,03,20,06,34,0.70
2018,03,20,06,35,0.70
2018,03,20,06,36,0.70
2018,03,20,06,37,0.70
2018,03,20,06,38,0.70
2018,03,20,06,39,0.70
2018,03,20,06,40,0.70
2018,03,20,06,41,0.80
2018,03,20,06,42,0.80
2018,03,20,06,43,0.80
2018,03,20,06,44,0.80
2018,03,20,06,45,0.80
2018,03,20,06,46,0.80
2018,03,20,06,47,0.80
2018,03,20,06,48,0.90
2018,03,20,06,49,0.90
2018,03,20,06,50,0.90
2018,03,20,06,51,0.90
2018,03,20,06,52,0.90
2018,03,20,06,53,1.00
2018,03,20,06,54,1.00
2018,03,20,06,55,1.00
2018,03,20,06,56,1.00
2018,03,20,06,57,1.10
2018,03,20,06,58,1.10
2018,03,20,06,59,1.10
2018,03,20,07,00,1.10
2018,03,20,07,01,1.10
2018,03,20,07,02,1.20
2018,03,20,07,03,1.20
2018,03,20,07,04,1.20
2018,03,20,07,05,1.20
2018,03,20,07,06,1.20
2018,03,20,07,07,1.20
2018,03,20,07,08,1.30
2018,03,20,07,09,1.30
2018,03,20,07,10,1.30
2018,03,20,07,11,1.30
2018,03,20,07,12,1.30
2018,03,20,07,13,1.30
2018,03,20,07,14,1.30
2018,03,20,07,15,1.30
2018,03,20,07,16,1.30
2018,03,20,07,17,1.30
2018,03,20,07,18,1.30
2018,03,20,07,19,1.30
2018,03,20,07,20,1.30
2018,03,20,07,21,1.30
2018,03,20,07,22,1.30
2018,03,20,07,23,1.30
2018,03,20,07,24,1.30
2018,03,20,07,25,1.30
2018,03,20,07,26,1.30
2018,03,20,07,27,1.30
2018,03,20,07,28,1.30
2018,03,20,07,29,1.30
2018,03,20,07,30,1.30
2018,03,20,07,31,1.40
2018,03,20,07,32,1.40
2018,03,20,07,33,1.40
2018,03,20,07,34,1.40
2018,03,20,07,35,1.40
2018,03,20,07,36,1.50
2018,03,20,07,37,1.50
2018,03,20,07,38,1.50
2018,03,20,07,39,1.60
2018,03,20,07,40,1.60
2018,03,20,07,41,1.60
2018,03,20,07,42,1.60
2018,03,20,07,43,1.60
2018,03,20,07,44,1.60
2018,03,20,07,45,1.70
2018,03,20,07,46,1.70
2018,03,20,07,47,1.70
2018,03,20,07,48,1.70
2018,03,20,07,49,1.80
2018,03,20,07,50,1.80
2018,03,20,07,51,1.80
2018,03,20,07,52,1.80
2018,03,20,07,53,1.80
2018,03,20,07,54,1.80
2018,03,20,07,55,1.80
2018,03,20,07,56,1.80
2018,03,20,07,57,1.80
2018,03,20,07,58,1.80
2018,03,20,07,59,1.80
2018,03,20,08,00,1.80
2018,03,20,08,01,1.90
2018,03,20,08,02,1.90
2018,03,20,08,03,1.90
2018,03,20,08,04,1.90
2018,03,20,08,05,1.90
2018,03,20,08,06,1.90
2018,03,20,08,07,2.00
2018,03,20,08,08,2.00
2018,03,20,08,09,2.00
2018,03,20,08,10,2.00
2018,03,20,08,11,2.00
2018,03,20,08,12,2.00
2018,03,20,08,13,2.00
2018,03,20,08,14,2.10
2018,03,20,08,15,2.10
2018,03,20,08,16,2.10
2018,03,20,08,17,2.10
2018,03,20,08,18,2.10
2018,03,20,08,19,2.10
2018,03,20,08,20,2.10
2018,03,20,08,21,2.10
2018,03,20,08,22,2.10
2018,03,20,08,23,2.20
2018,03,20,08,24,2.20
2018,03,20,08,25,2.20
2018,03,20,08,26,2.20
2018,03,20,08,27,2.20
2018,03,20,08,28,2.20
2018,03,20,08,29,2.20
2018,03,20,08,30,2.30
2018,03,20,08,31,2.30
2018,03,20,08,32,2.30
2018,03,20,08,33,2.30
2018,03,20,08,34,2.30
2018,03,20,08,35,2.30
2018,03,20,08,36,2.30
2018,03,20,08,37,2.30
2018,03,20,08,38,2.30
2018,03,20,08,39,2.30
2018,03,20,08,40,2.30
2018,03,20,08,41,2.30
2018,03,20,08,42,2.40
2018,03,20,08,43,2.40
2018,03,20,08,44,2.40
2018,03,20,08,45,2.40
2018,03,20,08,46,2.40
2018,03,20,08,47,2.40
2018,03,20,08,48,2.40
2018,03,20,08,49,2.50
2018,03,20,08,50,2.50
2018,03,20,08,51,2.50
2018,03,20,08,52,2.50
2018,03,20,08,53,2.50
2018,03,20,08,54,2.60
2018,03,20,08,55,2.60
2018,03,20,08,56,2.60
2018,03,20,08,57,2.60
2018,03,20,08,58,2.60
2018,03,20,08,59,2.70
2018,03,20,09,00,2.70
2018,03,20,09,01,2.70
2018,03,20,09,02,2.70
2018,03,20,09,03,2.70
2018,03,20,09,04,2.70
2018,03,20,09,05,2.70
2018,03,20,09,06,2.70
2018,03,20,09,07,2.70
2018,03,20,09,08,2.80
2018,03,20,09,09,2.80
2018,03,20,09,10,2.80
2018,03,20,09,11,2.80
2018,03,20,09,12,2.80
2018,03,20,09,13,2.80
2018,03,20,09,14,2.80
2018,03,20,09,15,2.80
2018,03,20,09,16,2.90
2018,03,20,09,17,2.90
2018,03,20,09,18,2.90
2018,03,20,09,19,2.90
2018,03,20,09,20,2.90
2018,03,20,09,21,3.00
2018,03,20,09,22,3.00
2018,03,20,09,23,3.00
2018,03,20,09,24,3.00
2018,03,20,09,25,3.10
2018,03,20,09,26,3.10
2018,03,20,09,27,3.10
2018,03,20,09,28,3.10
2018,03,20,09,29,3.20
2018,03,20,09,30,3.20
2018,03,20,09,31,3.20
2018,03,20,09,32,3.20
2018,03,20,09,33,3.20
2018,03,20,09,34,3.30
2018,03,20,09,35,3.30
2018,03,20,09,36,3.30
2018,03,20,09,37,3.30
2018,03,20,09,38,3.30
2018,03,20,09,39,3.40
2018,03,20,09,40,3.40
2018,03,20,09,41,3.40
2018,03,20,09,42,3.40
2018,03,20,09,43,3.50
2018,03,20,09,44,3.50
2018,03,20,09,45,3.50
2018,03,20,09,46,3.50
2018,03,20,09,47,3.50
2018,03,20,09,48,3.60
2018,03,20,09,49,3.60
2018,03,20,09,50,3.60
2018,03,20,09,51,3.60
2018,03,20,09,52,3.60
2018,03,20,09,53,3.60
2018,03,20,09,54,3.60
2018,03,20,09,55,3.60
2018,03,20,09,56,3.60
2018,03,20,09,57,3.60
2018,03,20,09,58,3.70
2018,03,20,09,59,3.70
2018,03,20,10,00,3.70
2018,03,20,10,01,3.70
2018,03,20,10,02,3.70
2018,03,20,10,03,3.80
2018,03,20,10,04,3.80
2018,03,20,10,05,3.80
2018,03,20,10,06,3.80
2018,03,20,10,07,3.90
2018,03,20,10,08,3.90
2018,03,20,10,09,3.90
2018,03,20,10,10,3.90
2018,03,20,10,11,3.90
2018,03,20,10,12,4.00
2018,03,20,10,13,4.00
2018,03,20,10,14,4.00
2018,03,20,10,15,4.10
2018,03,20,10,16,4.10
2018,03,20,10,17,4.10
2018,03,20,10,18,4.10
2018,03,20,10,19,4.10
2018,03,20,10,20,4.20
2018,03,20,10,21,4.20
2018,03,20,10,22,4.20
2018,03,20,10,23,4.30
2018,03,20,10,24,4.30
2018,03,20,10,25,4.30
2018,03,20,10,26,4.30
2018,03,20,10,27,4.30
2018,03,20,10,28,4.30
2018,03,20,10,29,4.40
2018,03,20,10,30,4.40
2018,03,20,10,31,4.40
2018,03,20,10,32,4.40
2018,03,20,10,33,4.50
2018,03,20,10,34,4.50
2018,03,20,10,35,4.50
2018,03,20,10,36,4.60
2018,03,20,10,37,4.60
2018,03,20,10,38,4.70
2018,03,20,10,39,4.70
2018,03,20,10,40,4.70
2018,03,20,10,41,4.80
2018,03,20,10,42,4.80
2018,03,20,10,43,4.90
2018,03,20,10,44,4.90
2018,03,20,10,45,4.90
2018,03,20,10,46,5.00
2018,03,20,10,47,5.10
2018,03,20,10,48,5.10
2018,03,20,10,49,5.10
2018,03,20,10,50,5.10
2018,03,20,10,51,5.20
2018,03,20,10,52,5.20
2018,03,20,10,53,5.20
2018,03,20,10,54,5.30
2018,03,20,10,55,5.30
2018,03,20,10,56,5.30
2018,03,20,10,57,5.30
2018,03,20,10,58,5.40
2018,03,20,10,59,5.40
2018,03,20,11,00,5.40
2018,03,20,11,01,5.50
2018,03,20,11,02,5.50
2018,03,20,11,03,5.60
2018,03,20,11,04,5.60
2018,03,20,11,05,5.60
2018,03,20,11,06,5.70
2018,03,20,11,07,5.70
2018,03,20,11,08,5.70
2018,03,20,11,09,5.80
2018,03,20,11,10,5.80
2018,03,20,11,11,5.80
2018,03,20,11,12,5.90
2018,03,20,11,13,5.90
2018,03,20,11,14,5.90
2018,03,20,11,15,6.00
2018,03,20,11,16,6.00
2018,03,20,11,17,6.10
2018,03,20,11,18,6.10
2018,03,20,11,19,6.20
2018,03,20,11,20,6.20
2018,03,20,11,21,6.20
2018,03,20,11,22,6.30
2018,03,20,11,23,6.30
2018,03,20,11,24,6.30
2018,03,20,11,25,6.40
2018,03,20,11,26,6.40
2018,03,20,11,27,6.40
2018,03,20,11,28,6.40
2018,03,20,11,29,6.50
2018,03,20,11,30,6.50
2018,03,20,11,31,6.60
2018,03,20,11,32,6.60
2018,03,20,11,33,6.60
2018,03,20,11,34,6.60
2018,03,20,11,35,6.70
2018,03,20,11,36,6.70
2018,03,20,11,37,6.80
2018,03,20,11,38,6.80
2018,03,20,11,39,6.80
2018,03,20,11,40,6.80
2018,03,20,11,41,6.90
2018,03,20,11,42,6.90
2018,03,20,11,43,7.00
2018,03,20,11,44,7.00
2018,03,20,11,45,7.10
2018,03,20,11,46,7.10
2018,03,20,11,47,7.10
2018,03,20,11,48,7.20
2018,03,20,11,49,7.20
2018,03,20,11,50,7.20
2018,03,20,11,51,7.20
2018,03,20,11,52,7.30
2018,03,20,11,53,7.30
2018,03,20,11,54,7.30
2018,03,20,11,55,7.40
2018,03,20,11,56,7.40
2018,03,20,11,57,7.50
2018,03,20,11,58,7.50
2018,03,20,11,59,7.50
2018,03,20,12,00,7.60
2018,03,20,12,01,7.60
2018,03,20,12,02,7.70
2018,03,20,12,03,7.70
2018,03,20,12,04,7.80
2018,03,20,12,05,7.80
2018,03,20,12,06,7.80
2018,03,20,12,07,7.90
2018,03,20,12,08,7.90
2018,03,20,12,09,7.90
2018,03,20,12,10,7.90
2018,03,20,12,11,7.90
2018,03,20,12,12,7.90
2018,03,20,12,13,8.00
2018,03,20,12,14,8.00
2018,03,20,12,15,8.00
2018,03,20,12,16,8.00
2018,03,20,12,17,8.10
2018,03,20,12,18,8.10
2018,03,20,12,19,8.10
2018,03,20,12,20,8.10
2018,03,20,12,21,8.10
2018,03,20,12,22,8.10
2018,03,20,12,23,8.10
2018,03,20,12,24,8.10
2018,03,20,12,25,8.10
2018,03,20,12,26,8.20
2018,03,20,12,27,8.20
2018,03,20,12,28,8.20
2018,03,20,12,29,8.20
2018,03,20,12,30,8.20
2018,03,20,12,31,8.30
2018,03,20,12,32,8.30
2018,03,20,12,33,8.30
2018,03,20,12,34,8.30
2018,03,20,12,35,8.40
2018,03,20,12,36,8.40
2018,03,20,12,37,8.40
2018,03,20,12,38,8.40
2018,03,20,12,39,8.40
2018,03,20,12,40,8.40
2018,03,20,12,41,8.40
2018,03,20,12,42,8.40
2018,03,20,12,43,8.40
2018,03,20,12,44,8.40
2018,03,20,12,45,8.40
2018,03,20,12,46,8.40
2018,03,20,12,47,8.40
2018,03,20,12,48,8.40
2018,03,20,12,49,8.40
2018,03,20,12,50,8.40
2018,03,20,12,51,8.40
2018,03,20,12,52,8.50
2018,03,20,12,53,8.50
2018,03,20,12,54,8.50
2018,03,20,12,55,8.50
2018,03,20,12,56,8.50
2018,03,20,12,57,8.60
2018,03,20,12,58,8.60
2018,03,20,12,59,8.60
2018,03,20,13,00,8.70
2018,03,20,13,01,8.70
2018,03,20,13,02,8.70
2018,03,20,13,03,8.70
2018,03,20,13,04,8.70
2018,03,20,13,05,8.70
2018,03,20,13,06,8.70
2018,03,20,13,07,8.70
2018,03,20,13,08,8.70
2018,03,20,13,09,8.70
2018,03,20,13,10,8.70
2018,03,20,13,11,8.70
2018,03,20,13,12,8.70
2018,03,20,13,13,8.80
2018,03,20,13,14,8.80
2018,03,20,13,15,8.80
2018,03,20,13,16,8.80
2018,03,20,13,17,8.80
2018,03,20,13,18,8.80
2018,03,20,13,19,8.80
2018,03,20,13,20,8.90
2018,03,20,13,21,8.90
2018,03,20,13,22,8.90
2018,03,20,13,23,8.90
2018,03,20,13,24,8.90
2018,03,20,13,25,8.90
2018,03,20,13,26,8.90
2018,03,20,13,27,8.90
2018,03,20,13,28,8.90
2018,03,20,13,29,8.90
2018,03,20,13,30,8.90
2018,03,20,13,31,8.90
2018,03,20,13,32,9.00
2018,03,20,13,33,9.00
2018,03,20,13,34,9.00
2018,03,20,13,35,9.10
2018,03,20,13,36,9.10
2018,03,20,13,37,9.10
2018,03,20,13,38,9.20
2018,03,20,13,39,9.20
2018,03,20,13,40,9.30
2018,03,20,13,41,9.30
2018,03,20,13,42,9.40
2018,03,20,13,43,9.40
2018,03,20,13,44,9.50
2018,03,20,13,45,9.60
2018,03,20,13,46,9.60
2018,03,20,13,47,9.60
2018,03,20,13,48,9.60
2018,03,20,13,49,9.70
2018,03,20,13,50,9.70
2018,03,20,13,51,9.70
2018,03,20,13,52,9.70
2018,03,20,13,53,9.70
2018,03,20,13,54,9.70
2018,03,20,13,55,9.70
2018,03,20,13,56,9.70
2018,03,20,13,57,9.70
2018,03,20,13,58,9.70
2018,03,20,13,59,9.70
2018,03,20,14,00,9.70
2018,03,20,14,01,9.60
2018,03,20,14,02,9.60
2018,03,20,14,03,9.70
2018,03,20,14,04,9.60
2018,03,20,14,05,9.60
2018,03,20,14,06,9.60
2018,03,20,14,07,9.60
2018,03,20,14,08,9.60
2018,03,20,14,09,9.60
2018,03,20,14,10,9.60
2018,03,20,14,11,9.60
2018,03,20,14,12,9.60
2018,03,20,14,13,9.60
2018,03,20,14,14,9.50
2018,03,20,14,15,9.50
2018,03,20,14,16,9.40
2018,03,20,14,17,9.40
2018,03,20,14,18,9.40
2018,03,20,14,19,9.30
2018,03,20,14,20,9.30
2018,03,20,14,21,9.30
2018,03,20,14,22,9.30
2018,03,20,14,23,9.30
2018,03,20,14,24,9.30
2018,03,20,14,25,9.40
2018,03,20,14,26,9.40
2018,03,20,14,27,9.40
2018,03,20,14,28,9.40
2018,03,20,14,29,9.50
2018,03,20,14,30,9.50
2018,03,20,14,31,9.60
2018,03,20,14,32,9.60
2018,03,20,14,33,9.60
2018,03,20,14,34,9.60
2018,03,20,14,35,9.60
2018,03,20,14,36,9.60
2018,03,20,14,37,9.60
2018,03,20,14,38,9.70
2018,03,20,14,39,9.70
2018,03,20,14,40,9.70
2018,03,20,14,41,9.70
2018,03,20,14,42,9.70
2018,03,20,14,43,9.80
2018,03,20,14,44,9.80
2018,03,20,14,45,9.80
2018,03,20,14,46,9.80
2018,03,20,14,47,9.90
2018,03,20,14,48,9.90
2018,03,20,14,49,10.00
2018,03,20,14,50,10.10
2018,03,20,14,51,10.10
2018,03,20,14,52,10.20
2018,03,20,14,53,10.20
2018,03,20,14,54,10.30
2018,03,20,14,55,10.30
2018,03,20,14,56,10.30
2018,03,20,14,57,10.40
2018,03,20,14,58,10.40
2018,03,20,14,59,10.40
2018,03,20,15,00,10.40
2018,03,20,15,01,10.30
2018,03,20,15,02,10.30
2018,03,20,15,03,10.40
2018,03,20,15,04,10.40
2018,03,20,15,05,10.40
2018,03,20,15,06,10.40
2018,03,20,15,07,10.40
2018,03,20,15,08,10.50
2018,03,20,15,09,10.50
2018,03,20,15,10,10.60
2018,03,20,15,11,10.60
2018,03,20,15,12,10.60
2018,03,20,15,13,10.60
2018,03,20,15,14,10.60
2018,03,20,15,15,10.70
2018,03,20,15,16,10.70
2018,03,20,15,17,10.80
2018,03,20,15,18,10.80
2018,03,20,15,19,10.90
2018,03,20,15,20,10.90
2018,03,20,15,21,10.90
2018,03,20,15,22,11.00
2018,03,20,15,23,11.00
2018,03,20,15,24,11.00
2018,03,20,15,25,11.10
2018,03,20,15,26,11.10
2018,03,20,15,27,11.10
2018,03,20,15,28,11.10
2018,03,20,15,29,11.10
2018,03,20,15,30,11.10
2018,03,20,15,31,11.00
2018,03,20,15,32,11.00
2018,03,20,15,33,11.00
2018,03,20,15,34,11.00
2018,03,20,15,35,11.00
2018,03,20,15,36,11.00
2018,03,20,15,37,11.00
2018,03,20,15,38,11.10
2018,03,20,15,39,11.10
2018,03,20,15,40,11.10
2018,03,20,15,41,11.00
2018,03,20,15,42,11.00
2018,03,20,15,43,11.00
2018,03,20,15,44,10.90
2018,03,20,15,45,10.80
2018,03,20,15,46,10.80
2018,03,20,15,47,10.70
2018,03,20,15,48,10.70
2018,03,20,15,49,10.70
2018,03,20,15,50,10.70
2018,03,20,15,51,10.70
2018,03,20,15,52,10.70
2018,03,20,15,53,10.70
2018,03,20,15,54,10.70
2018,03,20,15,55,10.70
2018,03,20,15,56,10.60
2018,03,20,15,57,10.60
2018,03,20,15,58,10.60
2018,03,20,15,59,10.60
2018,03,20,16,00,10.60
2018,03,20,16,01,10.60
2018,03,20,16,02,10.50
2018,03,20,16,03,10.50
2018,03,20,16,04,10.40
2018,03,20,16,05,10.40
2018,03,20,16,06,10.30
2018,03,20,16,07,10.30
2018,03,20,16,08,10.20
2018,03,20,16,09,10.20
2018,03,20,16,10,10.20
2018,03,20,16,11,10.10
2018,03,20,16,12,10.10
2018,03,20,16,13,10.00
2018,03,20,16,14,10.00
2018,03,20,16,15,10.00
2018,03,20,16,16,9.90
2018,03,20,16,17,10.00
2018,03,20,16,18,10.00
2018,03,20,16,19,10.00
2018,03,20,16,20,10.00
2018,03,20,16,21,10.10
2018,03,20,16,22,10.10
2018,03,20,16,23,10.20
2018,03,20,16,24,10.20
2018,03,20,16,25,10.20
2018,03,20,16,26,10.20
2018,03,20,16,27,10.20
2018,03,20,16,28,10.20
2018,03,20,16,29,10.20
2018,03,20,16,30,10.20
2018,03,20,16,31,10.20
2018,03,20,16,32,10.10
2018,03,20,16,33,10.10
2018,03,20,16,34,10.10
2018,03,20,16,35,10.00
2018,03,20,16,36,10.00
2018,03,20,16,37,9.90
2018,03,20,16,38,9.90
2018,03,20,16,39,9.80
2018,03,20,16,40,9.80
2018,03,20,16,41,9.80
2018,03,20,16,42,9.70
2018,03,20,16,43,9.70
2018,03,20,16,44,9.70
2018,03,20,16,45,9.60
2018,03,20,16,46,9.60
2018,03,20,16,47,9.60
2018,03,20,16,48,9.60
2018,03,20,16,49,9.60
2018,03,20,16,50,9.60
2018,03,20,16,51,9.60
2018,03,20,16,52,9.60
2018,03,20,16,53,9.60
2018,03,20,16,54,9.60
2018,03,20,16,55,9.60
2018,03,20,16,56,9.60
2018,03,20,16,57,9.60
2018,03,20,16,58,9.60
2018,03,20,16,59,9.60
2018,03,20,17,00,9.60
2018,03,20,17,01,9.60
2018,03,20,17,02,9.60
2018,03,20,17,03,9.60
2018,03,20,17,04,9.60
2018,03,20,17,05,9.60
2018,03,20,17,06,9.60
2018,03,20,17,07,9.60
2018,03,20,17,08,9.60
2018,03,20,17,09,9.60
2018,03,20,17,10,9.60
2018,03,20,17,11,9.60
2018,03,20,17,12,9.60
2018,03,20,17,13,9.50
2018,03,20,17,14,9.50
2018,03,20,17,15,9.50
2018,03,20,17,16,9.50
2018,03,20,17,17,9.50
2018,03,20,17,18,9.50
2018,03,20,17,19,9.50
2018,03,20,17,20,9.50
2018,03,20,17,21,9.50
2018,03,20,17,22,9.40
2018,03,20,17,23,9.40
2018,03,20,17,24,9.40
2018,03,20,17,25,9.50
2018,03,20,17,26,9.50
2018,03,20,17,27,9.50
2018,03,20,17,28,9.50
2018,03,20,17,29,9.60
2018,03,20,17,30,9.60
2018,03,20,17,31,9.50
2018,03,20,17,32,9.60
2018,03,20,17,33,9.60
2018,03,20,17,34,9.60
2018,03,20,17,35,9.60
2018,03,20,17,36,9.60
2018,03,20,17,37,9.60
2018,03,20,17,38,9.60
2018,03,20,17,39,9.60
2018,03,20,17,40,9.60
2018,03,20,17,41,9.60
2018,03,20,17,42,9.50
2018,03,20,17,43,9.50
2018,03,20,17,44,9.50
2018,03,20,17,45,9.50
2018,03,20,17,46,9.40
2018,03,20,17,47,9.40
2018,03,20,17,48,9.40
2018,03,20,17,49,9.40
2018,03,20,17,50,9.40
2018,03,20,17,51,9.30
2018,03,20,17,52,9.30
2018,03,20,17,53,9.30
2018,03,20,17,54,9.30
2018,03,20,17,55,9.30
2018,03,20,17,56,9.30
2018,03,20,17,57,9.30
2018,03,20,17,58,9.20
2018,03,20,17,59,9.20
2018,03,20,18,00,9.20
2018,03,20,18,01,9.20